Change the Weather History Date:

Sunday, November 13, 2011

  Actual Average Record
Temperature  
Mean Temperature 58 °F -  
Max Temperature 75 °F - 75 °F (2011)
Min Temperature 41 °F - 36 °F (2013)
Degree Days  
Heating Degree Days 7    
Cooling Degree Days 0    
Growing Degree Days 8 (Base 50)    
Moisture  
Dew Point 52 °F    
Average Humidity 77    
Maximum Humidity 97    
Minimum Humidity 51    
Precipitation  
Precipitation 0.00 in - 0.00 in (2015)
Month to date precipitation  
Year to date precipitation  
Sea Level Pressure  
Sea Level Pressure 30.21 in    
Wind  
Wind Speed 6 mph (ESE)    
Max Wind Speed 20 mph    
Max Gust Speed 24 mph    
Visibility 10 miles    
Events      
T = Trace of Precipitation, MM = Missing Value Source: NWS Daily Summary

Daily Weather History Graph

Daily Weather History Graph

Search for Another Location

Airport or City:

Trip Planner

Search our weather history database for the weather conditions in past years. The results will help you decide how hot, cold, wet, or windy it might be!

Date:

Astronomy

Nov. 13, 2011 Rise Set
Actual Time 7:06 AM EST 5:47 PM EST
Civil Twilight 6:41 AM EST 6:12 PM EST
Nautical Twilight 6:12 AM EST 6:41 PM EST
Astronomical Twilight 5:44 AM EST 7:10 PM EST
Moon 8:02 PM EST (11/13) 9:31 AM EST (11/13)
Length of Visible Light 11h 31m
Length of Day
10h 40m
Waning Gibbous, 93% of the Moon is Illuminated
Nov 13
Waning Gibbous
Nov 18
Last Quarter
Nov 25
New
Dec 2
First Quarter
Dec 10
Full

Hourly Weather History & Observations

Time (EST) Temp. Windchill Dew Point Humidity Pressure Visibility Wind Dir Wind Speed Gust Speed Precip Events Conditions
12:53 AM 41.0 °F - 37.9 °F 89% 30.25 in 10.0 mi Calm Calm - N/A   Clear
1:53 AM 41.0 °F 39.0 °F 39.0 °F 93% 30.24 in 10.0 mi NNE 3.5 mph - N/A   Clear
2:53 AM 44.1 °F - 41.0 °F 89% 30.24 in 10.0 mi Calm Calm - N/A   Clear
3:53 AM 45.0 °F 43.5 °F 42.1 °F 90% 30.23 in 10.0 mi NE 3.5 mph - N/A   Mostly Cloudy
4:53 AM 46.9 °F - 43.0 °F 86% 30.22 in 10.0 mi ENE 4.6 mph - N/A   Clear
5:53 AM 46.9 °F - 45.0 °F 93% 30.23 in 10.0 mi NNE 4.6 mph - N/A   Mostly Cloudy
6:53 AM 48.0 °F - 46.0 °F 93% 30.23 in 10.0 mi NE 4.6 mph - N/A   Scattered Clouds
7:53 AM 51.1 °F - 46.9 °F 86% 30.24 in 10.0 mi ENE 4.6 mph - N/A   Clear
8:53 AM 55.9 °F - 48.9 °F 77% 30.25 in 10.0 mi ENE 6.9 mph - N/A   Clear
9:53 AM 64.9 °F - 55.0 °F 70% 30.25 in 10.0 mi East 8.1 mph - N/A   Clear
10:53 AM 73.0 °F - 59.0 °F 61% 30.26 in 10.0 mi ESE 10.4 mph - N/A   Clear
11:53 AM 73.9 °F - 59.0 °F 59% 30.24 in 10.0 mi SE 13.8 mph 21.9 mph N/A   Clear
12:53 PM 75.0 °F - 57.9 °F 55% 30.21 in 10.0 mi SSE 19.6 mph 24.2 mph N/A   Clear
1:53 PM 75.0 °F - 57.0 °F 53% 30.18 in 10.0 mi SE 15.0 mph - N/A   Clear
2:53 PM 75.0 °F - 55.9 °F 51% 30.16 in 10.0 mi SSE 13.8 mph - N/A   Clear
3:53 PM 73.9 °F - 57.0 °F 55% 30.15 in 10.0 mi SSE 16.1 mph 21.9 mph N/A   Clear
4:53 PM 71.1 °F - 57.9 °F 63% 30.15 in 10.0 mi SSE 11.5 mph - N/A   Clear
5:53 PM 66.9 °F - 57.9 °F 73% 30.17 in 10.0 mi SSE 6.9 mph - N/A   Clear
6:53 PM 66.0 °F - 59.0 °F 78% 30.17 in 10.0 mi SSE 6.9 mph - N/A   Clear
7:53 PM 64.9 °F - 57.9 °F 78% 30.19 in 10.0 mi ESE 5.8 mph - N/A   Clear
8:53 PM 63.0 °F - 59.0 °F 87% 30.19 in 10.0 mi ESE 4.6 mph - N/A   Clear
9:53 PM 63.0 °F - 59.0 °F 87% 30.19 in 10.0 mi SE 8.1 mph - N/A   Clear
10:53 PM 62.1 °F - 59.0 °F 90% 30.18 in 10.0 mi East 5.8 mph - N/A   Clear
11:53 PM 57.9 °F - 57.0 °F 97% 30.16 in 10.0 mi East 3.5 mph - N/A   Clear